GFSSW_850_temp_024.txt.gz
Temp
8 8 8 8 8 8 8 9 9 9 9 8 8 9 9 10 11 12 14 16 16 16 17 17 16 17 17 17 18 18 15 14 17 19 21 22 21 25 26 26 26 26 26 27 27
7 7 7 7 7 8 8 8 8 9 9 9 9 9 9 9 11 14 14 15 15 16 16 16 17 17 16 17 17 15 13 15 18 20 21 22 21 22 23 23 25 26 28 28 27
6 7 7 7 7 8 8 9 9 9 9 9 9 8 9 9 11 11 11 13 12 12 13 15 15 16 16 17 17 16 16 17 18 21 21 21 21 22 22 21 24 26 26 25 26
7 7 7 7 7 8 8 8 8 8 9 8 8 8 8 9 10 13 13 13 13 13 13 14 14 14 13 14 16 15 16 19 19 20 20 20 21 20 21 21 23 23 24 23 24
7 7 7 7 8 8 8 9 8 8 7 8 8 8 7 7 11 12 12 13 13 13 13 12 12 14 12 13 16 15 16 17 19 19 19 19 19 19 20 21 22 22 23 23 23
7 7 8 8 8 9 9 9 8 8 9 9 9 6 4 3 12 10 11 12 12 11 11 12 12 13 14 14 15 16 17 17 18 18 18 19 19 19 20 21 21 22 22 23 23
8 8 8 8 8 9 9 9 8 9 9 9 8 7 5 9 10 10 9 10 10 10 10 12 12 11 13 14 16 16 15 15 15 16 17 19 18 19 20 21 21 21 22 22 23
7 7 7 8 9 9 9 8 8 8 8 9 8 7 7 10 10 10 9 10 10 10 10 12 12 11 12 14 15 14 14 14 17 15 18 19 18 21 22 22 21 22 22 22 24
8 8 8 8 9 9 9 9 9 8 8 8 7 6 8 10 11 11 10 10 10 10 10 11 12 12 13 12 11 12 14 12 15 16 17 18 18 20 22 22 20 21 22 23 23
8 8 9 9 9 9 9 9 9 9 8 7 7 5 10 10 10 11 10 10 11 10 10 9 11 10 9 10 11 11 11 14 14 15 16 16 17 18 20 20 19 21 22 22 22
8 8 9 9 9 8 8 7 6 7 7 7 8 6 8 10 10 10 10 10 11 10 9 11 9 9 11 12 12 12 13 13 14 15 15 15 17 17 17 18 18 19 20 21 21
8 8 9 8 8 8 7 6 6 4 4 9 9 8 10 9 9 10 10 9 10 8 9 8 9 11 13 11 12 11 11 11 13 14 14 14 13 14 15 16 17 18 18 19 20
8 8 9 9 8 8 7 6 6 5 4 7 10 9 10 10 10 10 9 9 9 8 8 8 9 12 12 12 11 11 11 12 12 14 15 14 14 15 17 17 18 18 19 19 20
8 9 9 9 8 8 7 6 6 6 2 7 10 10 10 10 10 10 10 10 9 8 9 8 10 11 11 11 11 10 12 13 13 13 11 14 13 15 16 17 17 18 19 19 20
8 9 9 9 8 7 7 6 6 6 5 8 9 10 8 9 10 11 10 10 8 8 10 9 11 11 10 10 11 11 12 12 12 12 12 13 11 16 16 15 15 17 19 20 21
9 9 9 9 8 8 7 7 7 4 4 7 9 8 7 8 10 10 10 9 9 9 9 9 11 11 11 12 12 13 12 11 11 10 9 12 12 14 15 16 18 17 18 20 20
9 9 9 9 8 8 7 7 3 3 6 7 7 8 7 7 9 9 9 9 6 6 6 9 9 11 12 10 11 11 9 7 7 8 10 12 12 15 15 16 16 16 18 21 22
9 9 9 8 8 8 8 4 4 5 5 7 8 7 7 7 7 8 8 7 8 7 6 6 8 10 12 10 9 9 8 7 9 9 10 13 11 13 15 16 17 18 20 21 22
9 9 8 8 8 8 7 1 2 4 6 7 7 6 6 7 7 6 7 7 8 7 6 7 7 9 10 11 11 10 9 10 10 10 9 10 12 14 17 17 17 16 19 20 21
9 8 8 8 7 7 3 4 4 6 7 7 5 6 5 6 5 4 6 8 8 8 6 7 7 10 11 12 12 11 11 10 7 10 10 10 12 13 15 15 16 15 15 19 19
9 8 7 7 7 7 1 3 5 7 7 7 6 6 6 6 6 5 6 8 8 8 7 6 6 8 9 9 9 11 9 9 8 7 9 10 11 12 15 17 14 15 16 16 17
7 4 7 7 5 0 0 4 6 6 7 7 6 6 6 6 5 5 6 8 8 7 6 6 5 5 7 8 9 9 10 9 8 9 9 8 10 14 15 13 13 14 14 13 14
4 5 7 7 -0 -2 2 4 5 6 6 5 5 6 6 5 4 5 6 8 7 6 6 6 4 5 7 7 8 8 8 9 7 7 7 10 11 13 14 13 15 15 14 13 14
4 1 5 5 3 2 2 5 4 6 5 5 4 5 5 5 5 4 5 7 7 7 8 6 3 4 4 7 6 6 7 7 7 6 9 10 11 14 14 12 14 16 14 13 13
4 1 2 -0 1 0 2 3 4 5 5 5 4 5 4 4 4 5 5 5 7 7 5 4 5 4 5 6 6 6 6 7 7 7 7 9 9 13 11 12 14 15 13 13 13
3 2 2 1 2 1 3 3 4 5 4 5 4 5 5 4 4 4 4 4 4 5 3 3 5 5 5 7 6 6 7 7 7 7 8 9 9 12 14 14 14 15 14 13 13
2 1 0 1 0 1 1 4 4 5 4 4 5 4 4 5 6 5 5 5 5 4 4 4 4 4 4 7 6 5 7 7 8 8 8 8 10 12 12 13 13 15 15 14 14

GFSSW_850_temp_027.txt.gz
Temp
7 7 7 8 8 8 9 9 9 9 9 9 9 10 11 11 12 13 14 14 15 15 15 16 16 16 16 16 17 18 20 20 21 21 23 23 24 24 24 25 25 26 27 27 27
7 7 8 8 8 8 9 9 9 9 9 9 9 10 10 11 12 12 11 12 12 12 14 15 16 15 15 16 17 19 20 21 22 22 22 23 23 24 24 24 24 25 24 25 25
8 8 8 8 8 9 9 9 9 8 9 9 9 10 10 10 11 12 11 12 11 12 13 13 14 14 16 16 17 19 20 21 21 21 22 23 23 23 23 24 24 24 24 22 23
7 7 7 8 8 9 9 9 9 9 9 9 9 9 9 10 13 11 11 10 11 11 12 12 13 14 16 17 17 18 19 21 21 20 21 22 23 23 23 23 23 22 23 23 22
7 8 8 9 9 9 9 9 8 9 9 9 9 9 8 8 11 10 10 11 11 11 11 11 12 14 17 17 18 17 20 19 19 20 20 20 21 22 22 22 21 22 22 23 24
8 8 9 9 10 10 9 9 8 8 8 9 9 9 7 8 10 10 10 10 10 11 11 10 11 12 14 16 17 19 19 19 19 19 19 20 21 21 22 21 21 21 22 22 23
8 9 9 9 10 10 9 9 8 9 9 9 9 8 7 10 11 11 11 11 11 10 10 11 11 11 12 15 15 16 17 18 18 19 19 19 19 21 21 21 21 21 21 22 22
8 9 9 9 10 10 10 10 9 10 10 9 9 8 9 11 11 10 10 11 11 11 10 11 11 9 12 13 15 16 16 17 19 18 19 19 19 23 22 22 21 21 22 22 22
8 8 9 9 10 10 9 9 9 10 9 8 8 8 10 11 10 10 10 10 10 11 11 11 10 10 12 13 14 16 17 17 19 20 19 19 20 23 22 22 22 22 22 21 21
8 9 9 9 9 9 10 10 10 9 9 8 8 7 10 10 10 10 10 9 10 10 10 10 10 13 13 14 14 15 15 17 17 19 19 19 20 22 22 21 21 21 21 21 21
9 9 9 9 9 9 10 10 9 8 9 8 8 7 9 10 10 10 10 9 9 10 11 11 11 12 13 14 15 15 15 16 18 18 19 19 19 20 21 20 20 20 20 20 20
8 9 9 9 9 9 8 7 5 6 5 9 9 8 10 9 8 10 10 9 10 11 11 11 11 12 13 13 13 14 14 14 15 16 16 17 17 18 18 18 19 19 19 19 19
9 9 9 9 9 8 7 6 6 5 5 7 9 9 9 9 10 10 10 10 11 10 11 11 12 12 12 13 13 14 13 14 14 16 17 16 17 18 19 19 19 19 19 19 19
9 9 9 9 8 8 7 6 5 5 7 9 10 9 9 9 10 11 10 10 10 10 11 11 13 12 12 12 13 12 14 14 15 15 15 16 16 18 19 20 20 19 19 19 19
9 9 9 9 8 7 7 6 6 5 9 10 10 9 9 9 10 11 10 9 10 10 10 10 11 12 12 12 13 13 14 14 14 14 14 15 15 18 20 19 20 20 20 20 19
9 9 9 9 8 7 7 6 6 8 8 8 9 9 10 9 10 10 10 9 9 9 10 10 11 12 13 13 13 14 14 14 14 14 13 15 15 18 20 20 20 21 20 20 20
9 9 9 8 8 8 7 7 8 8 8 8 8 9 9 9 10 10 10 9 8 7 8 10 11 12 13 12 13 13 12 12 11 12 12 16 15 17 19 19 20 20 20 20 20
9 9 8 8 8 7 7 8 7 7 7 9 8 8 8 9 9 9 9 9 8 9 6 7 8 11 12 12 12 13 12 13 11 13 14 15 14 18 19 19 19 19 20 19 19
9 8 8 8 8 7 7 7 6 7 8 7 8 7 8 9 8 8 8 8 9 9 7 8 8 11 12 13 12 12 11 14 12 13 14 15 16 18 18 20 20 20 19 19 19
8 8 7 7 7 7 7 6 7 7 8 8 6 7 7 8 7 8 8 9 9 9 8 9 8 10 10 11 12 11 14 12 13 12 13 15 16 17 19 18 18 19 18 18 16
8 7 7 7 7 7 6 6 6 7 7 7 7 7 7 7 7 7 8 9 10 10 9 8 8 10 11 9 9 7 11 13 13 14 14 14 17 17 18 16 18 19 18 16 15
7 8 7 7 7 1 5 5 5 7 7 7 7 7 7 7 7 7 7 8 9 8 8 8 7 8 9 11 10 10 11 12 12 13 13 14 15 18 16 17 17 18 18 16 14
3 5 6 7 5 5 4 5 5 6 7 6 6 7 7 6 5 6 7 8 8 8 8 8 8 8 10 10 10 11 11 11 11 11 12 13 15 17 17 17 16 17 17 16 13
3 5 5 5 3 4 3 5 6 6 6 6 6 6 5 6 6 5 6 8 8 8 8 7 7 8 8 9 9 8 10 11 10 11 12 13 14 16 16 16 16 17 17 16 13
4 3 2 5 4 3 2 3 5 5 5 6 5 5 4 4 5 6 7 7 7 7 7 6 6 7 8 8 8 8 9 9 10 10 10 13 13 15 15 14 16 16 17 17 13
3 3 1 2 1 3 4 4 5 6 5 5 4 5 5 4 5 5 6 6 5 6 6 4 6 7 7 8 8 8 9 9 9 10 10 10 11 13 13 14 16 16 17 17 14
2 1 0 2 2 3 4 5 5 4 5 5 5 5 5 6 6 6 6 5 5 4 4 5 5 6 7 8 9 8 10 10 11 11 11 11 12 14 14 15 16 16 16 16 15

GFSSW_850_temp_030.txt.gz
Temp
7 8 8 8 8 8 9 9 9 9 10 10 11 11 11 12 13 11 11 11 12 12 15 16 16 15 16 19 20 20 23 25 26 26 26 27 28 29 28 29 28 29 29 27 26
7 8 8 8 8 9 9 9 9 9 10 10 11 11 11 12 12 11 11 10 11 11 12 14 17 17 18 19 20 22 24 25 27 27 25 26 27 28 28 28 28 28 26 26 26
7 8 8 8 9 9 9 9 9 9 10 10 10 11 11 12 10 12 11 11 12 11 12 12 14 17 18 20 21 22 23 27 26 26 24 25 27 27 27 29 29 29 27 26 25
8 8 9 9 9 10 10 10 9 10 10 10 11 10 10 10 16 11 10 11 11 12 12 13 14 16 19 21 21 22 23 24 25 25 23 24 26 27 27 27 27 27 26 25 25
8 8 9 9 9 9 9 9 9 10 10 10 10 10 9 12 12 11 10 10 10 11 12 13 14 16 20 21 21 22 23 23 23 23 23 23 24 26 26 26 26 26 25 25 25
8 8 9 9 9 10 10 9 9 10 10 10 10 10 8 14 11 10 11 10 10 11 12 13 14 16 17 19 21 22 22 22 23 23 22 22 24 25 25 25 25 24 24 25 25
8 9 9 10 10 10 10 9 9 10 10 10 10 10 9 12 11 10 10 10 10 10 12 12 13 14 16 18 18 19 20 22 22 23 23 22 23 24 25 25 25 24 24 24 25
9 9 10 10 10 10 10 10 10 10 9 10 10 8 12 11 11 11 11 11 11 10 10 11 12 13 14 16 17 18 19 20 23 23 22 22 21 25 25 25 25 25 25 25 25
8 9 9 10 10 10 10 10 11 10 10 10 9 8 14 11 12 11 11 11 11 11 10 10 11 13 15 16 17 19 19 20 21 24 23 22 21 24 24 25 25 25 25 25 26
8 9 9 9 9 10 10 10 10 9 10 10 10 10 12 12 11 11 11 11 11 11 12 12 13 15 16 17 17 19 20 20 21 24 24 22 22 24 25 25 25 26 25 25 25
8 9 9 9 9 10 10 9 10 11 10 11 11 10 11 11 11 11 11 11 11 12 14 15 15 15 16 17 18 19 20 20 21 23 22 23 22 23 24 24 24 24 24 24 24
9 9 9 9 9 9 9 9 7 7 10 10 10 10 10 10 10 12 11 12 13 14 15 14 14 16 16 16 17 17 17 18 19 21 21 21 21 23 24 24 24 24 24 23 23
9 9 9 9 9 8 8 7 6 6 10 11 11 11 11 11 12 12 12 12 13 13 14 14 15 16 14 15 14 15 16 17 18 19 20 20 20 21 23 23 22 22 22 22 22
9 10 10 9 8 8 8 6 6 6 12 13 13 12 11 12 13 12 12 12 13 13 13 14 15 15 14 14 15 14 17 17 17 17 17 20 18 21 23 23 23 23 22 23 23
9 10 10 9 8 8 7 6 6 6 12 13 13 11 11 12 12 13 12 12 12 13 13 13 14 14 14 15 16 15 17 17 16 17 17 18 18 20 22 22 23 24 23 23 23
9 9 9 9 8 7 7 7 6 11 11 12 12 12 13 13 13 12 12 12 12 12 13 13 14 14 14 15 15 16 15 15 15 15 16 18 19 20 22 23 24 25 24 23 23
9 9 9 8 8 8 7 7 11 12 12 12 11 12 12 13 13 13 12 13 12 10 12 13 14 15 14 13 15 15 14 13 13 14 14 18 18 19 22 24 23 23 24 23 23
9 9 8 8 8 7 7 11 10 11 12 12 12 12 12 12 12 12 12 13 13 11 11 11 11 12 14 14 13 14 14 14 13 15 16 18 17 20 22 23 22 22 22 22 23
9 8 8 8 8 8 9 11 11 11 11 10 11 11 12 12 12 12 12 12 12 12 9 10 11 14 13 14 14 13 12 15 15 16 18 19 19 20 22 22 23 23 22 22 21
8 7 8 8 8 7 11 9 11 10 10 10 9 11 10 11 11 11 11 12 12 13 12 11 9 13 13 13 14 13 11 8 14 12 15 19 19 20 22 21 22 22 21 21 20
6 9 7 7 7 10 9 11 10 9 9 9 10 10 11 10 11 11 11 12 12 12 12 12 10 11 13 12 12 9 10 10 13 15 16 18 20 22 22 20 20 21 21 20 19
6 12 7 7 10 9 10 9 7 9 9 10 10 10 10 10 9 11 11 11 11 11 10 12 10 10 12 14 14 11 10 9 9 12 16 16 19 21 20 20 20 20 20 20 15
5 7 7 7 8 9 10 9 8 9 9 9 9 10 10 9 7 10 10 11 10 10 10 10 10 10 13 13 13 12 13 10 12 11 12 16 18 20 21 20 19 19 19 20 16
5 9 9 7 7 8 8 9 9 9 9 9 8 9 9 8 10 7 9 10 9 9 9 8 9 10 10 13 13 12 12 14 13 12 13 16 18 19 20 20 19 18 19 20 16
4 7 5 9 8 8 8 7 8 8 9 8 8 8 7 6 8 8 10 9 8 7 7 7 7 10 11 12 12 12 12 13 13 14 13 14 17 18 19 19 18 16 18 19 17
3 3 5 6 6 7 7 9 8 9 8 8 8 8 7 6 7 6 8 7 4 6 6 5 7 9 9 11 12 12 12 13 13 13 14 15 15 17 18 17 16 17 18 19 19
2 2 0 5 6 6 7 7 7 7 8 8 8 7 7 9 9 8 8 7 7 4 4 5 5 8 8 12 12 11 13 14 14 15 14 14 16 17 17 17 17 17 18 18 18

GFSSW_850_temp_033.txt.gz
Temp
8 8 8 8 9 9 10 10 10 11 11 11 11 11 11 12 13 13 14 13 13 12 15 15 16 17 18 20 22 23 25 25 27 28 29 30 31 30 31 31 31 31 31 31 29
8 8 8 8 9 9 9 10 10 10 11 11 11 11 12 12 13 15 12 12 11 12 13 16 18 19 20 20 21 24 25 26 28 29 30 30 30 30 31 31 31 31 29 28 28
8 8 8 9 9 9 10 10 10 10 11 11 11 11 12 12 13 14 12 12 12 13 13 15 16 19 21 21 22 23 25 27 28 28 29 28 28 29 30 31 30 30 29 29 29
8 8 9 9 9 9 10 10 10 11 10 10 11 11 12 12 19 13 12 12 12 13 14 16 17 18 21 23 23 23 24 25 26 27 28 28 27 28 29 30 30 30 30 29 28
8 9 9 9 9 9 10 10 10 11 11 11 11 11 12 14 16 13 12 12 12 13 15 16 18 19 21 23 23 24 25 25 25 25 26 27 26 27 28 29 29 29 29 29 28
9 9 9 10 10 10 10 10 10 11 11 11 11 11 11 17 13 13 12 12 14 14 15 16 17 18 20 22 23 24 25 25 25 25 25 26 26 26 26 27 28 28 29 28 28
8 8 9 9 10 10 10 10 10 11 11 11 11 12 12 15 13 13 14 14 14 13 14 15 15 16 18 20 20 21 22 24 25 26 26 26 24 24 25 26 28 28 28 28 27
9 9 9 10 10 10 10 10 11 11 11 11 11 10 15 13 13 14 14 14 14 14 13 13 14 15 17 18 19 20 22 21 24 25 26 25 24 26 25 26 27 27 28 28 28
9 9 10 10 10 10 10 10 11 11 11 11 11 11 16 14 15 14 13 14 14 14 14 13 13 15 17 18 18 20 20 22 23 25 25 25 24 26 25 26 27 27 28 28 28
9 9 10 10 10 10 10 11 11 10 11 9 10 13 15 15 14 13 14 14 14 14 15 15 15 17 19 19 18 20 21 22 22 25 25 24 25 26 25 25 26 26 27 28 28
9 9 10 10 10 10 11 11 11 10 12 14 14 14 15 14 13 14 14 14 15 15 16 17 18 18 19 20 20 20 20 21 24 26 25 24 25 26 27 26 26 26 27 27 27
9 10 10 10 10 10 10 12 10 10 12 13 13 13 13 13 13 15 14 15 16 16 18 17 17 18 19 19 18 18 19 20 21 23 24 24 24 25 27 27 26 26 26 26 26
8 10 10 10 10 10 11 10 10 10 12 15 14 14 14 14 14 14 14 15 16 16 16 16 18 19 18 18 17 17 17 18 19 21 22 22 22 23 25 26 25 25 25 26 26
8 10 10 10 9 11 11 9 10 9 14 15 15 15 14 14 15 14 14 14 15 15 16 16 17 17 17 17 17 16 18 18 18 18 18 22 20 22 24 24 25 25 25 25 25
9 10 10 9 9 12 10 9 9 9 14 16 16 14 14 15 15 15 14 14 15 15 16 15 16 16 16 17 18 17 18 18 18 18 19 19 20 22 24 24 25 25 25 25 24
9 10 9 9 9 10 9 9 9 13 14 16 15 16 16 16 16 15 15 15 15 16 16 16 17 15 17 18 18 18 17 17 18 18 17 18 19 21 22 24 25 26 26 26 25
9 10 9 9 11 10 9 10 13 14 16 16 15 16 15 16 16 16 15 15 15 13 14 15 16 16 16 16 17 17 16 14 14 15 15 18 19 20 23 24 26 26 26 26 26
9 9 8 9 9 9 10 14 12 15 15 16 15 15 15 16 16 16 15 15 16 15 13 12 11 11 15 15 15 15 15 14 12 14 16 18 17 19 23 25 24 24 24 25 25
9 8 9 9 8 9 11 14 14 15 14 13 14 15 15 16 15 15 15 15 15 15 12 12 11 15 16 16 15 15 15 16 14 14 13 14 17 21 22 24 24 24 24 24 24
8 10 11 8 8 9 13 12 14 14 14 13 12 14 13 14 14 14 14 15 14 15 15 13 11 14 16 16 16 15 16 12 9 12 12 15 17 20 21 22 24 24 24 23 23
7 11 9 8 9 11 12 15 14 13 12 12 12 13 13 13 13 13 13 15 14 14 15 14 13 13 15 14 14 9 10 12 12 13 12 16 17 23 23 23 23 24 23 23 21
7 13 9 8 11 12 13 13 11 12 12 12 12 12 11 12 11 12 12 14 13 13 12 14 12 12 14 16 16 16 13 12 8 10 16 15 15 18 23 24 23 22 22 22 18
8 10 9 8 10 12 13 14 13 13 13 12 11 12 12 11 9 11 13 14 13 12 11 11 11 10 13 16 17 15 15 15 14 13 11 10 12 15 22 22 21 20 21 21 18
8 12 12 10 11 11 12 12 12 12 12 11 10 11 11 11 13 11 12 13 9 7 7 7 9 9 11 13 7 7 9 15 14 10 12 13 13 11 19 22 21 20 19 21 18
9 10 7 12 11 10 10 12 12 12 12 11 11 11 11 9 11 11 11 11 10 8 7 5 6 9 11 13 14 14 15 15 15 15 13 15 14 11 12 17 21 19 19 21 19
7 7 7 7 9 8 9 10 11 12 12 11 11 11 10 8 8 8 10 10 8 6 6 6 6 8 9 12 14 14 15 16 16 16 16 16 16 17 18 19 20 19 19 20 21
2 2 2 6 10 10 9 8 8 8 9 11 10 10 10 12 11 11 11 11 11 8 5 5 6 8 9 12 13 13 15 16 16 17 17 16 17 19 19 19 19 19 19 19 20

GFSSW_850_temp_036.txt.gz
Temp
8 9 9 9 10 10 10 10 11 11 11 11 12 12 12 12 13 13 13 13 13 14 15 16 16 17 18 19 21 23 23 23 25 26 28 30 31 32 32 32 32 32 31 29 31
8 9 9 9 10 10 11 11 11 11 11 11 11 12 12 13 13 12 13 14 14 14 15 16 18 19 19 20 20 23 23 24 26 27 28 30 30 31 31 31 32 32 30 29 29
8 9 9 9 10 10 10 11 11 11 11 11 12 12 12 12 12 13 14 14 14 14 14 14 17 18 20 21 22 22 22 25 26 28 28 29 29 30 30 30 31 32 30 30 29
9 9 9 9 10 10 11 11 11 11 11 11 12 12 13 12 18 13 14 14 13 14 14 16 17 18 20 21 23 23 24 24 25 26 27 28 28 29 29 29 30 31 31 30 30
9 9 9 9 10 10 10 11 11 11 11 12 11 12 12 13 16 14 14 14 14 15 16 17 18 19 20 22 22 24 24 24 25 25 25 26 27 28 29 28 29 30 31 30 30
9 9 9 10 10 10 11 11 11 11 11 12 12 12 10 16 15 15 15 15 16 16 16 17 18 19 20 21 22 23 24 25 25 26 26 26 27 27 27 28 28 28 30 30 28
9 9 9 10 10 10 11 11 11 11 11 12 12 11 10 15 15 15 16 16 16 16 15 16 17 17 18 20 21 21 22 23 24 25 26 26 25 26 27 27 27 28 28 29 29
9 9 10 10 10 11 11 11 11 12 12 12 12 10 13 15 15 16 16 16 16 16 16 15 15 16 17 18 19 20 21 21 23 24 25 25 24 26 26 26 26 26 27 28 29
9 10 10 10 11 11 11 11 12 11 11 12 12 11 16 16 16 15 15 15 15 16 16 16 16 16 17 18 18 19 19 20 22 25 25 24 24 26 26 26 25 26 26 27 28
9 10 10 11 11 11 12 12 12 11 11 10 10 13 15 17 16 15 15 15 15 16 16 17 16 17 18 18 17 19 20 21 21 23 25 25 24 26 26 26 26 26 25 26 27
9 9 10 11 11 11 12 12 12 11 11 14 16 16 16 16 15 16 16 15 16 17 17 18 18 17 19 20 21 21 20 20 22 23 23 24 25 26 26 26 26 26 26 25 26
9 9 10 10 11 11 11 12 12 12 13 14 15 15 15 15 15 16 16 16 17 16 18 18 17 19 20 20 19 19 18 18 20 21 22 22 22 24 26 26 26 26 26 26 26
9 9 10 11 11 11 12 12 12 12 13 16 16 16 16 16 16 16 16 16 17 16 17 17 18 19 19 19 18 18 18 18 18 20 20 20 21 22 25 26 26 26 26 26 26
9 9 10 11 10 13 13 12 12 11 13 16 16 16 16 16 17 16 16 16 16 16 16 17 18 18 18 17 18 17 19 19 18 18 17 20 19 21 23 24 25 25 26 26 26
8 9 10 10 11 13 12 12 11 11 14 18 18 16 16 17 17 17 16 16 16 16 16 16 17 17 17 18 18 17 19 18 18 18 18 18 18 19 22 23 24 25 25 25 25
8 9 10 9 11 12 12 11 12 13 14 17 17 17 18 18 18 17 17 17 17 17 17 17 17 18 16 17 17 18 17 17 18 17 16 17 18 19 21 22 24 26 26 25 25
9 9 10 10 12 11 11 12 13 14 18 17 17 17 17 17 18 18 17 17 16 15 15 16 16 15 14 13 14 14 16 14 15 15 15 18 18 19 21 22 24 25 25 25 26
9 9 9 10 10 11 10 13 12 17 17 17 17 16 16 18 18 17 17 16 18 17 15 14 13 14 13 14 12 12 12 12 12 14 15 18 16 18 21 22 23 23 24 25 25
9 9 9 9 10 10 11 12 14 16 16 15 15 16 17 18 16 17 16 16 17 16 14 13 13 13 13 15 12 14 15 16 13 14 13 15 17 19 20 20 21 23 24 24 25
8 8 11 10 10 10 12 12 15 17 16 15 13 15 14 15 15 15 15 16 16 16 16 15 12 15 16 17 17 16 17 13 13 11 12 14 16 17 19 20 21 23 24 24 24
8 12 10 10 10 11 11 14 16 15 14 13 13 13 13 13 13 14 14 15 16 15 15 14 14 13 14 15 15 16 12 11 11 9 9 11 15 19 15 15 18 23 24 24 24
8 13 11 10 12 11 12 15 15 15 14 15 14 13 12 12 13 13 13 14 14 13 12 13 11 11 13 15 17 16 14 11 11 12 13 13 13 17 11 10 10 21 20 23 23
8 12 11 10 10 13 14 14 15 15 14 14 13 13 13 12 11 13 13 15 12 10 9 8 10 9 11 14 13 12 11 9 9 12 12 11 12 16 7 7 8 10 20 20 15
9 13 13 12 13 13 12 12 13 14 14 13 12 13 12 13 14 12 13 14 11 9 8 7 7 9 9 11 9 7 10 12 13 9 11 14 13 12 6 8 9 10 18 20 20
9 12 10 12 11 12 12 11 12 11 14 13 13 13 13 11 11 11 12 12 12 10 6 5 7 9 10 11 12 12 9 12 12 14 14 14 14 12 9 9 10 11 14 21 19
6 6 6 7 10 12 12 11 10 11 11 11 11 11 12 11 12 11 12 12 11 12 8 7 6 7 8 10 12 12 14 11 12 13 16 16 15 17 13 12 14 15 19 20 20
3 3 3 6 10 12 12 11 10 10 9 10 10 10 11 12 13 13 12 12 12 7 5 4 5 7 9 12 13 11 14 15 16 17 17 16 17 18 17 16 17 19 19 20 20

GFSSW_850_temp_042.txt.gz
Temp
9 9 9 10 10 10 10 11 11 11 11 11 11 11 12 12 13 14 15 14 14 14 15 15 16 17 17 17 18 19 15 15 18 19 21 22 22 24 25 26 26 28 30 29 29
9 9 10 10 10 10 11 11 11 11 11 11 11 11 12 12 13 14 15 15 14 14 15 15 16 16 16 17 18 16 13 16 19 20 20 22 22 23 24 24 24 25 26 29 27
9 9 10 10 10 11 11 11 11 11 11 11 11 11 11 13 13 14 15 15 14 14 15 15 15 15 16 17 17 17 16 18 19 20 21 22 22 22 22 22 23 25 25 26 27
9 10 10 10 10 11 11 11 11 12 11 11 11 11 12 12 13 15 15 15 14 15 15 15 15 15 15 15 18 15 18 18 19 20 20 20 22 22 22 23 23 24 25 27 27
9 9 10 10 11 11 11 11 12 12 11 11 11 11 12 11 14 15 15 15 15 15 16 15 15 15 14 15 16 15 16 18 19 20 20 21 21 22 22 23 24 24 24 25 27
8 9 9 10 11 11 12 12 12 12 11 11 11 11 11 10 15 15 15 15 15 15 16 16 15 15 15 14 14 16 15 16 18 18 19 20 21 22 23 23 23 24 24 25 26
8 9 9 10 11 11 12 12 12 12 11 11 11 11 11 14 15 15 15 15 15 16 16 16 16 16 15 13 16 15 14 14 16 18 18 20 19 21 23 23 23 24 24 25 25
9 9 9 10 11 11 12 12 12 12 11 10 11 11 12 15 15 15 15 16 15 15 16 16 16 15 15 15 15 13 13 13 15 16 19 19 18 20 21 22 22 23 24 24 25
9 9 9 10 11 11 12 12 12 12 11 11 11 10 12 15 15 15 16 15 15 15 16 16 16 15 15 12 10 11 11 12 14 16 17 17 17 20 22 22 22 23 23 24 24
8 9 9 10 11 11 12 12 12 12 11 11 10 9 14 15 15 16 16 16 16 16 16 16 15 12 10 10 9 11 12 13 14 16 17 15 15 17 19 20 20 21 22 23 24
8 9 10 10 11 11 12 12 12 12 12 11 12 12 14 15 16 16 16 16 16 16 13 15 11 11 11 12 13 13 13 13 15 16 17 15 15 16 17 18 18 19 20 21 23
8 9 10 11 11 11 11 12 12 12 11 12 12 12 13 15 15 16 16 16 15 13 13 11 11 13 15 15 15 14 13 13 15 16 16 15 15 16 16 16 18 19 20 21 22
8 9 10 11 11 11 11 12 11 12 10 12 14 14 15 15 15 16 16 16 15 14 13 12 13 15 15 14 13 12 12 12 13 15 15 15 14 15 17 17 18 19 20 20 21
8 8 10 11 11 11 11 11 12 11 8 12 15 16 16 16 15 16 16 16 15 13 13 12 14 14 13 14 13 11 13 13 13 12 10 16 12 14 15 15 16 17 19 20 21
9 9 10 10 11 11 10 11 11 11 9 15 16 16 16 16 16 17 16 16 13 14 13 12 13 13 13 13 13 12 13 12 12 11 11 13 11 14 14 15 16 16 18 20 20
9 9 11 11 10 10 11 11 11 9 11 15 16 16 15 16 16 16 16 16 16 13 13 13 15 14 13 13 13 13 11 10 11 10 10 12 11 13 13 14 16 16 17 18 18
10 10 10 11 10 11 11 11 9 10 16 14 14 15 14 14 15 16 16 15 12 12 11 13 14 13 13 12 12 11 8 6 7 8 10 12 11 13 14 14 12 10 11 13 14
11 10 10 11 11 10 11 8 9 13 13 15 14 14 14 14 14 13 13 11 13 12 10 10 9 13 13 12 11 10 9 7 7 8 8 11 9 12 14 11 11 11 12 13 13
10 11 11 11 10 10 10 6 8 13 14 14 14 13 13 13 13 11 11 12 12 10 10 9 10 12 13 13 12 10 8 10 8 8 7 8 10 12 12 11 11 11 12 12 13
10 10 10 10 10 10 6 8 11 13 14 14 11 13 11 11 10 10 10 12 12 11 10 9 7 12 13 13 13 10 11 8 6 7 8 9 10 10 10 10 9 10 11 12 13
10 10 11 10 10 10 5 8 11 13 14 13 12 12 11 10 10 9 10 12 12 10 10 8 7 9 10 10 10 9 8 8 7 6 7 7 9 8 9 8 8 9 11 10 11
10 7 11 11 9 6 7 11 12 12 13 13 13 12 10 10 9 9 10 11 11 10 9 8 6 5 9 11 11 10 9 7 5 6 6 6 8 9 7 8 8 10 10 10 11
7 8 11 10 3 5 8 10 11 11 11 10 11 11 11 10 9 9 10 12 12 9 8 8 5 7 8 10 10 9 9 8 6 5 5 7 8 9 8 9 11 9 11 11 11
7 4 10 10 9 7 6 8 9 11 11 10 9 10 8 8 9 8 9 11 11 10 10 7 6 7 7 9 9 7 8 9 8 6 7 8 8 10 10 9 10 11 11 11 13
6 4 3 2 4 4 6 8 9 9 10 10 8 8 7 6 6 7 8 8 10 10 7 6 6 6 7 8 8 8 8 8 9 7 7 9 9 10 11 10 10 12 13 13 14
4 3 3 3 4 4 5 6 7 8 8 8 8 8 7 6 6 6 6 7 6 7 6 5 6 6 6 8 8 8 8 9 9 9 9 9 10 12 12 13 12 12 13 12 14
3 3 3 3 2 4 5 5 6 6 8 9 8 6 6 7 8 8 8 8 7 7 4 4 5 6 6 8 7 7 9 10 9 10 10 9 10 9 9 10 12 12 13 15 14

GFSSW_850_temp_045.txt.gz
Temp
9 9 9 10 10 10 10 10 11 11 11 11 11 11 12 13 14 14 15 15 15 14 15 15 16 16 16 16 17 18 14 14 17 19 20 21 20 22 22 23 23 24 24 25 25
9 9 9 10 10 10 11 11 11 11 11 11 11 11 12 13 14 15 15 15 14 14 14 14 15 15 16 16 17 16 13 15 18 20 19 20 21 21 22 21 22 23 25 24 23
8 9 9 10 10 10 11 11 11 11 11 11 11 12 12 13 13 15 15 15 14 14 14 14 14 15 15 16 16 15 15 17 19 19 19 19 20 20 21 21 22 22 23 24 25
8 8 9 9 10 10 11 11 11 11 11 11 11 12 12 12 13 15 15 15 15 15 15 14 15 15 14 14 16 15 16 17 18 19 19 19 20 20 21 21 22 22 23 24 25
9 9 9 9 10 10 11 11 11 11 11 11 11 12 12 12 14 15 15 15 15 15 15 15 15 14 13 13 14 14 15 16 17 17 18 19 19 19 20 21 21 22 23 23 24
9 9 9 9 10 11 11 11 11 11 11 11 11 11 11 10 15 15 15 15 15 15 15 15 15 15 14 14 13 14 14 14 16 17 17 17 19 20 21 21 22 22 23 23 24
9 9 9 10 10 11 12 12 11 11 11 11 11 11 11 14 15 15 15 15 15 15 15 15 15 15 15 13 14 14 13 13 15 17 17 19 18 19 20 21 21 22 22 23 24
8 9 9 10 10 11 12 12 11 11 11 11 11 11 12 14 15 15 15 15 15 15 15 15 15 15 15 15 14 12 11 11 14 15 18 17 17 19 21 20 21 22 22 22 23
8 9 9 10 10 12 12 12 12 12 11 11 11 10 13 15 15 15 15 15 16 15 16 15 15 15 14 11 9 9 11 12 13 15 15 15 15 17 19 19 19 20 20 20 21
8 9 9 10 10 12 12 12 12 11 11 10 10 10 14 14 15 15 15 16 16 16 16 15 14 11 8 9 9 11 11 12 13 14 15 14 14 15 17 18 18 19 19 19 20
8 8 9 10 11 12 12 12 11 11 11 11 12 12 13 14 15 15 16 16 15 15 13 13 10 10 11 10 12 12 11 11 12 14 13 13 14 15 15 16 16 18 19 19 19
8 8 9 10 11 11 12 11 11 11 10 12 12 12 13 13 13 15 16 15 15 12 13 10 10 12 13 13 13 13 12 11 12 13 14 13 14 15 15 15 17 18 18 19 19
8 9 10 11 11 11 11 11 11 11 10 12 13 12 14 14 13 15 15 15 14 13 12 11 12 13 14 13 12 12 12 11 11 12 13 12 13 13 15 16 17 17 18 18 19
8 9 10 11 11 11 11 11 11 11 7 12 13 15 15 15 15 16 16 15 14 12 12 12 13 14 13 13 12 12 13 12 11 10 9 13 10 13 13 13 14 15 17 18 18
9 10 10 11 10 10 11 11 11 11 9 15 15 15 15 15 16 16 16 15 13 13 12 12 13 12 12 13 13 12 12 11 11 9 9 10 8 13 13 13 13 14 16 15 16
10 11 11 11 10 11 11 11 11 9 10 14 15 15 15 15 15 16 16 15 15 13 12 12 14 12 12 13 12 13 11 9 8 7 6 10 10 12 13 13 13 13 13 14 15
11 10 11 11 11 10 11 11 8 8 14 13 13 14 12 13 13 14 13 13 12 11 11 12 13 12 13 12 11 10 7 6 6 7 7 10 9 11 12 13 12 11 12 14 15
11 11 11 11 10 10 11 8 8 11 13 14 14 14 11 12 12 12 11 10 10 11 8 8 9 12 12 12 11 9 7 6 6 7 8 10 8 9 12 11 11 11 12 13 14
11 11 11 10 10 10 11 6 8 11 12 13 13 12 12 12 12 11 10 11 10 10 9 8 8 12 12 12 11 9 7 8 7 6 5 7 8 10 11 12 11 10 11 13 14
11 11 10 10 10 10 6 8 10 12 12 13 11 12 11 10 10 10 10 11 10 10 10 9 6 10 11 12 11 10 9 9 6 7 7 8 8 9 10 11 10 10 10 12 13
11 11 10 10 10 11 5 7 10 12 12 12 11 11 10 10 10 9 9 11 11 10 9 8 6 8 9 9 9 8 7 7 6 6 6 8 8 9 9 9 9 9 10 11 13
10 7 10 10 9 4 6 9 11 11 11 10 11 11 10 10 9 9 8 10 11 10 9 8 5 5 8 10 11 10 8 8 5 6 4 7 9 11 9 8 7 8 9 11 12
7 8 10 10 2 4 6 8 10 10 10 9 9 9 8 9 8 8 9 11 10 10 9 7 5 7 8 8 10 9 9 8 6 5 6 6 8 11 7 7 8 8 10 11 12
7 4 8 9 6 5 5 6 8 10 10 9 9 9 8 7 8 7 7 9 9 9 10 8 6 6 6 7 8 7 8 7 5 6 6 7 8 9 9 9 9 10 10 11 12
6 2 2 2 3 2 4 6 7 7 8 9 8 8 7 6 6 6 7 7 8 9 7 6 6 7 8 7 7 7 7 8 7 7 7 8 7 9 9 9 9 10 11 10 13
5 3 3 2 3 2 4 6 6 7 6 6 6 7 6 4 6 6 5 5 5 7 4 5 5 6 6 7 8 8 8 9 9 9 8 8 8 10 9 8 9 8 9 11 12
3 2 2 2 1 2 3 4 4 3 6 7 6 5 5 6 7 6 6 6 6 5 3 4 6 6 6 8 6 6 8 8 8 9 8 7 7 6 6 6 6 6 8 8 9

GFSSW_850_temp_048.txt.gz
Temp
9 9 9 9 10 10 10 11 11 11 11 12 12 12 12 13 14 14 15 15 15 14 14 15 15 15 15 16 17 17 14 13 17 18 19 21 20 21 21 22 21 23 23 22 23
8 8 9 9 9 10 10 11 11 11 11 12 12 12 12 13 14 15 15 14 14 14 14 14 15 15 15 16 17 15 11 15 17 19 19 20 20 20 20 20 20 22 23 23 23
8 8 9 9 9 10 10 10 11 11 11 11 12 12 12 13 14 15 15 15 14 14 14 14 14 14 15 15 15 14 12 16 18 18 19 18 19 20 19 19 21 21 22 22 23
8 8 8 9 9 10 10 11 11 11 11 11 11 12 12 12 13 15 14 15 15 14 14 14 14 14 13 14 15 14 15 16 17 18 18 18 19 19 19 20 20 21 21 22 23
8 8 8 9 9 10 10 11 11 11 11 11 11 12 12 12 14 14 15 15 15 15 14 14 14 14 12 13 14 14 14 15 16 16 17 18 17 18 19 19 20 21 22 23 23
8 8 8 9 9 10 11 11 11 11 11 11 11 11 11 11 15 15 15 15 15 15 15 15 15 15 14 13 13 13 13 14 15 16 16 16 17 18 20 20 20 21 22 22 23
7 8 8 9 9 10 11 11 11 11 11 11 11 11 11 14 14 15 15 15 15 15 15 15 15 15 14 13 13 14 13 13 14 15 15 18 15 17 19 20 20 21 21 22 22
7 8 8 9 9 10 11 11 11 11 11 11 11 11 12 14 15 15 15 15 15 15 15 15 15 15 14 14 12 11 10 11 13 14 16 16 15 17 18 19 19 19 20 20 21
7 8 8 9 10 11 11 11 12 12 11 11 10 10 13 14 15 15 15 15 15 15 15 15 15 14 13 10 9 8 10 12 12 14 14 15 14 16 18 18 18 19 18 19 20
8 8 9 9 11 11 11 11 11 11 11 10 10 10 14 13 14 15 15 15 15 15 15 15 13 9 7 8 9 11 10 11 11 12 12 11 12 14 16 16 16 17 18 18 19
8 9 9 10 11 11 11 11 11 11 10 11 12 12 13 13 14 15 15 15 15 15 12 12 10 10 11 10 11 11 11 11 11 12 11 11 12 13 14 15 15 17 18 18 18
8 9 10 10 11 11 11 11 9 10 9 12 11 11 12 12 13 15 15 15 14 12 12 10 10 11 12 12 12 12 11 11 10 12 12 11 12 13 13 14 16 16 17 18 18
9 9 10 10 11 11 11 11 11 11 9 12 12 12 14 14 13 14 15 15 13 12 12 10 12 13 13 12 12 11 11 11 10 11 11 10 12 12 13 14 15 16 17 17 17
10 10 10 11 11 11 11 11 11 11 7 13 13 14 14 14 14 15 15 15 13 12 11 11 12 13 13 12 11 11 12 11 11 9 7 11 8 11 12 12 12 14 16 17 17
10 11 11 11 10 11 10 11 11 11 9 14 14 15 15 15 15 15 16 15 12 12 11 12 13 12 12 12 11 11 12 11 11 9 8 9 7 10 11 12 12 14 15 16 16
10 10 11 10 11 10 11 11 11 8 9 13 15 14 14 14 14 14 15 14 14 12 12 11 13 12 12 12 12 11 11 9 6 6 6 7 7 9 10 12 12 12 14 14 14
11 11 11 11 10 10 11 11 7 7 13 12 12 13 12 12 12 13 11 10 11 11 11 11 12 12 12 12 11 9 7 6 6 6 7 8 8 9 10 12 12 12 13 15 15
11 11 11 10 10 10 11 8 9 11 11 13 13 12 11 12 11 11 11 9 11 10 8 8 9 11 12 11 10 8 7 5 6 7 8 9 7 8 11 11 12 12 12 13 14
11 11 10 10 10 10 10 6 7 10 11 11 12 11 11 11 11 10 9 9 10 10 9 7 8 11 11 11 10 8 7 7 7 6 3 7 7 9 11 10 10 10 12 13 14
11 11 10 10 10 10 6 8 9 11 11 11 10 11 10 9 10 9 9 10 10 10 9 9 7 9 10 11 10 9 8 6 3 6 7 8 8 9 10 10 10 9 10 13 13
11 11 10 10 11 10 5 6 9 11 11 11 10 10 10 9 9 8 9 10 10 10 9 7 6 7 9 8 8 7 7 5 5 5 5 7 8 9 9 9 9 9 11 11 12
11 7 10 11 8 3 5 8 10 11 11 10 10 10 9 9 8 7 8 9 11 10 8 7 4 5 7 9 9 8 7 6 7 6 4 6 9 10 8 8 7 8 9 10 10
8 8 10 10 2 3 5 7 8 10 10 9 9 9 8 8 7 7 8 10 9 9 7 6 5 5 7 8 8 8 8 7 5 5 6 6 8 10 8 8 9 8 9 10 10
7 4 8 8 5 4 3 5 7 9 9 9 8 8 7 7 7 7 7 8 8 8 9 8 4 6 6 7 7 7 7 7 6 6 7 7 7 9 9 8 8 8 9 9 9
6 1 1 2 2 2 2 4 6 7 7 7 7 8 7 5 5 5 6 6 7 8 6 5 6 7 7 6 7 7 7 7 6 6 6 8 7 8 8 8 7 8 8 7 7
5 3 2 1 1 2 3 4 5 5 5 6 6 4 4 4 5 5 5 4 4 6 5 4 5 6 6 7 7 6 7 7 8 8 8 6 6 9 8 7 6 6 6 6 7
4 2 1 1 0 2 2 4 4 3 4 5 4 3 3 5 6 5 6 5 5 4 4 5 5 6 6 6 6 6 7 7 8 9 6 6 8 8 6 6 5 5 5 5 6